Weather History for Bishop, CA

Change the Weather History Date:

Saturday, November 9, 2013

  Actual Average Record
Temperature  
Mean Temperature 49 °F 48 °F  
Max Temperature 70 °F 66 °F 79 °F (1968)
Min Temperature 27 °F 30 °F 15 °F (2011)
Degree Days  
Heating Degree Days 16 17  
Month to date heating degree days 155 142  
Since 1 July heating degree days 578 449  
Cooling Degree Days 0 0  
Month to date cooling degree days 0 0  
Year to date cooling degree days 1337 1104  
Moisture  
Dew Point 15 °F    
Average Humidity 35    
Maximum Humidity 58    
Minimum Humidity 12    
Precipitation  
Precipitation 0.00 in 0.01 in 0.60 in (1949)
Month to date precipitation 0.00 0.13  
Year to date precipitation 1.27 3.99  
Snow  
Snow 0.00 in 0.00 in 1.20 in (1982)
Month to date snowfall 0.0 0.0  
Since 1 July snowfall 0.0 0.0  
Since 1 September snowfall 0.0 0.0  
Snow Depth 0.00 in    
Sea Level Pressure  
Sea Level Pressure 30.09 in    
Wind  
Wind Speed 6 mph (NNW)    
Max Wind Speed 18 mph    
Max Gust Speed 23 mph    
Visibility 10 miles    
Events      
T = Trace of Precipitation, MM = Missing Value Source: NWS Daily Summary

Daily Weather History Graph

Daily Weather History Graph

Search for Another Location

Airport:

Trip Planner

Search our weather history database for the weather conditions in past years. The results will help you decide how hot, cold, wet, or windy it might be!

Date:

Astronomy

Nov. 09, 2013 Rise Set
Actual Time 6:26 AM PST 4:47 PM PST
Civil Twilight 5:59 AM PST 5:14 PM PST
Nautical Twilight 5:28 AM PST 5:46 PM PST
Astronomical Twilight 4:57 AM PST 6:16 PM PST
Moon 12:08 PM PST (11/9) 11:21 PM PST (11/9)
Length of Visible Light 11h 15m
Length of Day
10h 20m
Waxing Crescent, 45% of the Moon is Illuminated
Nov 9
Waxing Crescent
Nov 9
First Quarter
Nov 17
Full
Nov 25
Last Quarter
Dec 2
New

Hourly Weather History & Observations

Time (PST) Temp. Windchill Dew Point Humidity Pressure Visibility Wind Dir Wind Speed Gust Speed Precip Events Conditions
12:56 AM 34.0 °F 27.2 °F 15.1 °F 46% 30.03 in 10.0 mi North 8.1 mph - N/A   Clear
1:56 AM 30.9 °F 24.3 °F 15.1 °F 52% 30.04 in 10.0 mi NNW 6.9 mph - N/A   Clear
2:56 AM 30.9 °F 24.3 °F 15.1 °F 52% 30.04 in 10.0 mi NNW 6.9 mph - N/A   Clear
3:56 AM 30.9 °F 24.3 °F 15.1 °F 52% 30.06 in 10.0 mi North 6.9 mph - N/A   Clear
4:56 AM 28.9 °F 21.9 °F 14.0 °F 54% 30.09 in 10.0 mi NNW 6.9 mph - N/A   Clear
5:56 AM 28.9 °F 22.8 °F 15.1 °F 56% 30.12 in 10.0 mi North 5.8 mph - N/A   Clear
6:56 AM 27.0 °F 19.5 °F 14.0 °F 58% 30.15 in 10.0 mi NW 6.9 mph - N/A   Clear
7:56 AM 41.0 °F - 17.1 °F 38% 30.15 in 10.0 mi Calm Calm - N/A   Clear
8:56 AM 52.0 °F - 18.0 °F 26% 30.13 in 10.0 mi Calm Calm - N/A   Clear
9:56 AM 57.0 °F - 17.1 °F 21% 30.12 in 10.0 mi Calm Calm - N/A   Clear
10:56 AM 61.0 °F - 16.0 °F 17% 30.10 in 10.0 mi Calm Calm - N/A   Clear
11:56 AM 64.9 °F - 16.0 °F 15% 30.06 in 10.0 mi South 5.8 mph - N/A   Clear
12:56 PM 66.9 °F - 16.0 °F 14% 30.02 in 10.0 mi South 6.9 mph - N/A   Clear
1:56 PM 69.1 °F - 15.1 °F 13% 30.01 in 10.0 mi SE 9.2 mph - N/A   Clear
2:56 PM 69.1 °F - 16.0 °F 13% 30.01 in 10.0 mi SSE 15.0 mph 21.9 mph N/A   Clear
3:56 PM 66.9 °F - 16.0 °F 14% 30.01 in 10.0 mi SSE 15.0 mph - N/A   Clear
4:56 PM 61.0 °F - 15.1 °F 17% 30.05 in 10.0 mi South 8.1 mph - N/A   Clear
5:56 PM 57.0 °F - 15.1 °F 19% 30.09 in 10.0 mi South 6.9 mph - N/A   Clear
6:56 PM 48.9 °F - 12.9 °F 24% 30.13 in 10.0 mi ESE 3.5 mph - N/A   Clear
7:56 PM 43.0 °F 40.3 °F 12.0 °F 28% 30.13 in 10.0 mi North 4.6 mph - N/A   Clear
8:56 PM 39.9 °F 35.1 °F 12.0 °F 32% 30.12 in 10.0 mi North 6.9 mph - N/A   Clear
9:56 PM 36.0 °F 31.1 °F 12.9 °F 39% 30.14 in 10.0 mi NNW 5.8 mph - N/A   Clear
10:56 PM 34.0 °F 29.8 °F 12.9 °F 42% 30.14 in 10.0 mi NNW 4.6 mph - N/A   Clear
11:56 PM 33.1 °F 26.9 °F 12.9 °F 43% 30.14 in 10.0 mi NW 6.9 mph - N/A   Clear